User: anonymous   Login
Location: The D'Auria's Ocala Star Observatory
(29.0276°N, 82.1742°W)
Time: 11:19:32
(UTC-04:00)
Language:

Abrixas rocket - Orbit

View from above orbital plane
View from above orbital plane
View from above satellite
View from above satellite

Ground track
Ground track

The orbit data is extracted from the following two-line orbital elements,

1 25723U 99022C   17086.48933751 +.00007523 +00000-0 +12529-3 0  9992
2 25723 048.4160 242.6680 0010209 354.3327 005.7501 15.52919570993510
Epoch (UTC): 27 March 2017 11:44:38
Eccentricity: 0.0010209
inclination: 48.4160°
perigee height: 401 km
apogee height: 415 km
right ascension of ascending node: 242.6680°
argument of perigee: 354.3327°
revolutions per day: 15.52919570
mean anomaly at epoch: 5.7501°
orbit number at epoch: 99351

The dashed part of the orbit path shows where the satellite is in the earth's shadow,  

DLR